Location: De Folgeren
(53.1202°N, 6.0843°E)
Time: 01:30:25
(UTC+00:00)

Daily predictions for brighter satellites

Satellite Brightness Start Highest point End
(mag) Time Altitude Azimuth Time Altitude Azimuth Time Altitude Azimuth
Cosmos 2333 Rocket 4.5 02:51:54 19° NE 02:51:54 19° NE 02:55:03 10° ENE
USA 234 4.0 03:05:54 10° ENE 03:10:26 48° ENE 03:10:26 48° ENE
Cosmos 2219 Rocket 4.4 03:16:26 17° NNE 03:16:26 17° NNE 03:19:59 10° ENE
Cosmos 2322 Rocket 4.2 03:19:55 22° NNE 03:20:06 22° NNE 03:24:28 10° E
USA 59 Rocket 2.9 03:34:44 12° ESE 03:34:44 12° ESE 03:35:06 10° ESE
NOSS 3-1 (C) 4.0 03:34:05 67° NE 03:34:05 67° NE 03:42:18 10° ESE
CZ-2C R/B 4.4 03:35:06 10° NNE 03:36:58 22° NNE 03:36:58 22° NNE
Cosmos 1833 Rocket 4.0 03:46:20 32° NNE 03:46:20 32° NNE 03:49:18 10° NNE
ACS3 Solar Sail 3.8 03:39:14 10° N 03:40:27 16° N 03:40:27 16° N
SL-16 R/B 3.3 03:46:48 37° NNE 03:47:22 38° NE 03:52:38 10° ESE
Cosmos 2082 Rocket 3.6 03:49:32 21° SSE 03:52:26 35° ESE 03:57:30 10° NE
COSMOS 2455 3.1 03:58:09 63° SE 03:58:09 63° SE 04:03:09 10° SE
ATLAS 3B R/B 3.8 03:59:03 36° NNW 04:00:20 38° N 04:07:34 10° ENE
NOSS 3-4 (A) 3.7 04:02:31 52° NNE 04:02:31 52° NNE 04:07:21 10° NE
Cosmos 1898 Rocket 4.1 04:02:27 53° ESE 04:02:27 53° ESE 04:06:35 10° SE
NOSS 3-4 (C) 3.7 04:02:40 53° NNE 04:02:40 53° NNE 04:07:32 10° NE
Cosmos 1980 Rocket 3.8 04:14:13 22° S 04:14:13 22° S 04:16:10 10° S
Cosmos 468 Rocket 4.4 04:10:58 57° SE 04:11:29 60° ESE 04:16:36 10° NNE
Cosmos 2369 3.9 04:16:15 62° S 04:16:15 62° S 04:20:58 10° SSE
Aureole 1 Rocket 4.1 04:20:44 63° WNW 04:21:48 73° WSW 04:29:14 10° SSE
ADEOS Rocket 4.2 04:15:01 10° N 04:20:29 38° NNW 04:20:29 38° NNW
Cosmos 1763 Rocket 4.2 04:23:57 43° N 04:23:57 43° N 04:27:33 10° NNE
COSMO-SKYMED 1 3.4 04:18:49 10° SE 04:22:45 45° ENE 04:22:50 45° ENE
SL-16 R/B 4.4 04:24:28 13° N 04:24:28 13° N 04:26:55 10° NNE
Cosmos 2180 Rocket 4.3 04:23:51 61° NNW 04:24:57 76° W 04:31:15 10° S
SKYMED 2 4.2 04:20:40 10° SSE 04:24:01 51° SE 04:24:01 51° SE
Cosmos 1937 Rocket 3.4 04:25:55 77° NE 04:26:06 78° ENE 04:31:14 10° SSE
Cosmos 909 Rocket 4.3 04:28:18 57° WNW 04:29:01 59° NW 04:35:31 10° NE
Cosmos 1346 Rocket 4.4 04:33:27 27° NE 04:33:27 27° NE 04:35:22 10° NNE
Celestis-02/Orion 38 4.4 04:29:25 10° NNE 04:34:31 88° ESE 04:35:18 66° SSW
Cosmos 2333 Rocket 2.7 04:33:56 33° NNW 04:36:24 57° NE 04:42:04 10° SE
ARGOS 4.4 04:34:48 10° N 04:37:25 27° N 04:37:25 27° N
NOSS 3-1 (A) 3.9 04:37:46 40° NW 04:40:36 76° NE 04:49:04 10° SE
Cosmos 1606 Rocket 4.0 04:43:12 52° S 04:43:12 52° S 04:46:35 10° S
Cosmos 2360 Rocket 3.0 04:40:11 25° NNW 04:43:08 47° NE 04:48:31 10° ESE
Cosmos 2237 Rocket 4.3 04:47:53 12° N 04:50:25 15° NNE 04:53:42 10° NE
USA 234 3.4 04:48:46 10° E 04:55:16 65° N 04:57:47 39° WNW
Cosmos 540 Rocket 3.8 04:56:48 44° NNW 04:56:48 44° NNW 05:01:05 10° NNE
Helios 1A Rocket 3.4 04:53:36 10° SSE 04:55:47 38° SSE 04:55:47 38° SSE
SeaSat 1 3.6 04:55:08 10° NNE 04:58:20 28° NNW 04:58:20 28° NNW
Cosmos 2219 Rocket 3.2 04:58:08 18° NNW 05:01:57 42° NE 05:07:17 10° ESE
SL-4 R/B 1.9 05:03:14 55° SE 05:03:14 55° SE 05:05:55 10° ESE
ATLAS 5 CENTAUR R/B 2.6 05:05:55 23° NNE 05:05:55 23° NNE 05:07:47 10° NE
RESURS DK-1 4.1 05:06:48 20° N 05:06:48 20° N 05:08:27 10° NNE
Cosmos 2322 Rocket 2.5 05:01:44 24° NNW 05:05:12 68° NE 05:10:53 10° SE
Meteor 1-26 Rocket 4.3 05:02:57 10° N 05:08:28 77° ENE 05:14:06 10° SSE
Cosmos 1726 Rocket 3.4 05:08:06 56° WNW 05:08:35 61° W 05:12:47 10° S
Meteor 2-3 Rocket 3.8 05:06:32 10° S 05:12:16 83° E 05:17:59 10° NNE
Cosmos 1092 Rocket 4.3 05:06:08 10° S 05:12:21 69° E 05:18:33 10° NNE
CZ-4 R/B 3.6 05:09:25 10° NNE 05:14:06 81° WNW 05:18:43 10° SSW
Cosmos 489 Rocket 4.4 05:10:05 10° SSW 05:16:24 89° WNW 05:22:43 10° NNE
Nadezhda 4 Rocket 3.9 05:11:07 10° SSW 05:17:22 64° WNW 05:23:37 10° N
CZ-2C R/B 3.8 05:13:34 10° N 05:16:11 23° NNW 05:16:11 23° NNW
Cosmos 1428 Rocket 4.4 05:12:14 10° SSW 05:18:26 73° WNW 05:24:46 10° N
USA 59 Rocket 1.5 05:20:26 21° SW 05:20:26 21° SW 05:23:08 10° S
Cosmos 2221 4.2 05:20:11 10° N 05:23:56 32° ENE 05:27:39 10° SE
Cosmos 841 Rocket 3.4 05:19:05 10° SSW 05:24:20 76° WNW 05:29:37 10° NNE
COSMOS 2406 3.2 05:19:12 10° SSW 05:24:52 85° ESE 05:30:36 10° NNE
NOSS 3-1 (C) 4.3 05:21:26 29° WNW 05:24:54 47° SW 05:33:05 10° SSE
ACS3 Solar Sail 3.7 05:23:52 10° NNW 05:24:28 11° NNW 05:24:28 11° NNW
Cosmos 1833 Rocket 3.8 05:28:01 24° NW 05:28:25 24° NW 05:32:58 10° NNE
COSMOS 2428 4.1 05:25:55 11° NNW 05:30:39 31° NE 05:35:42 10° ESE
Cosmos 1892 Rocket 3.4 05:26:49 10° SSW 05:31:10 72° WNW 05:35:36 10° N
SL-16 R/B 2.3 05:28:40 26° NW 05:31:42 55° WSW 05:37:13 10° S
Cosmos 2195 Rocket 4.4 05:25:31 10° SSW 05:31:46 72° WNW 05:38:08 10° N
Cosmos 2082 Rocket 2.3 05:31:29 13° SW 05:36:20 53° NW 05:41:51 10° NNE
IRS-1D 3.7 05:36:25 10° N 05:41:10 47° WNW 05:45:59 10° SW
Cosmos 1125 Rocket 4.3 05:36:03 10° NNW 05:41:12 49° ENE 05:46:16 10° SE
COSMOS 2455 3.9 05:41:19 22° W 05:42:22 23° WSW 05:46:57 10° SSW
NOSS 8 (A) 3.9 05:45:58 41° WNW 05:46:50 75° SW 05:49:56 10° SE
Orbus 7S? 2.6 05:47:32 39° W 05:48:17 58° SSW 05:50:57 10° SE
Cosmos 405 Rocket 3.3 05:46:37 10° S 05:49:47 48° E 05:52:58 10° NNE
ATLAS 3B R/B 3.4 05:46:18 16° NW 05:52:40 56° NNE 06:00:12 10° ESE
Cosmos-2242 3.2 05:49:31 14° NNW 05:52:57 47° W 05:56:59 10° SSW
NOSS 3-4 (A) 4.2 05:49:57 21° WNW 05:53:02 34° N 05:58:58 10° NE
NOSS 3-4 (C) 4.2 05:50:06 21° WNW 05:53:11 35° N 05:59:08 10° NE
Cosmos 2278 4.1 05:51:02 19° NW 05:54:44 43° WSW 06:00:02 10° S
Cosmos 1812 Rocket 4.0 05:51:54 10° N 05:56:12 62° ENE 06:00:29 10° SSE
Cosmos 1707 3.8 05:54:00 10° N 05:56:56 35° ENE 05:59:51 10° SE
Cosmos 1437 Rocket 3.6 05:54:17 10° N 05:57:37 43° ENE 06:00:56 10° SE
COSMO-SKYMED 1 3.6 05:54:56 10° SSW 05:58:17 23° W 05:59:09 22° WNW
Cosmos 1484 Rocket 2.4 05:56:34 10° N 05:59:57 55° WNW 06:03:17 10° SSW
Cosmos 2058 Rocket 3.5 05:56:19 12° NNW 06:00:03 39° W 06:04:09 10° SSW
Okean 1 3.6 06:03:39 17° NW 06:05:52 34° W 06:09:07 10° SSW
Cosmos 1602 Rocket 4.5 06:01:45 10° S 06:06:03 52° E 06:10:24 10° NNE
Cosmos 1346 Rocket 4.1 06:07:59 18° NW 06:07:59 18° NW 06:10:00 10° NNW
CORIOLIS 4.4 06:05:14 10° NNE 06:10:39 76° ESE 06:16:03 10° S
SL-16 R/B 4.2 06:07:21 10° NNW 06:10:59 17° NNE 06:14:36 10° ENE
ARIANE 5 R/B 3.3 06:06:50 10° NNE 06:11:59 59° ESE 06:17:08 10° S
Cosmos 2285 Rocket 4.1 06:06:26 10° NNW 06:12:43 62° WSW 06:18:59 10° S
ATLAS 2AS CENTAUR R/B 4.3 06:10:07 10° S 06:16:29 39° ESE 06:22:45 10° NE
SL-08 ROCKET BODY 4.3 06:11:51 10° SSW 06:17:42 83° W 06:23:36 10° N
SL-08 R/B 3.7 06:14:26 10° SSE 06:18:58 63° ENE 06:23:37 10° N
IRIDIUM 104 4.3 06:14:21 10° SSW 06:19:31 63° W 06:24:44 10° N
Cosmos 2333 Rocket 3.0 06:15:59 13° NW 06:20:27 33° WSW 06:25:32 10° S
Meteor 1-10 Rocket 4.5 06:14:46 10° NNW 06:20:41 83° ENE 06:26:38 10° SSE
SAR-Lupe-4 3.8 06:18:47 10° NNE 06:22:21 75° ESE 06:25:54 10° S
SMAP 3.0 06:18:35 10° NNE 06:23:16 83° WNW 06:27:56 10° SSW
Cosmos 2360 Rocket 2.7 06:21:57 11° NW 06:27:05 41° WSW 06:32:18 10° S
Cosmos 2315 Rocket 4.3 06:21:37 10° N 06:28:02 76° ENE 06:34:22 10° SSE
IRIDIUM 114 4.4 06:23:35 10° SSW 06:28:41 54° W 06:33:50 10° N
Landsat 7 3.8 06:24:32 10° NNE 06:29:14 87° WNW 06:33:54 10° SSW
Meteor 1-19 Rocket 4.3 06:23:36 10° NNW 06:29:21 82° W 06:35:15 10° S
SAR-Lupe-1 4.2 06:26:32 10° NNE 06:30:10 79° ESE 06:33:47 10° SSW
CBERS-1 4.1 06:26:54 10° N 06:31:53 53° WNW 06:36:48 10° SW
IGS 5A 3.9 06:29:06 10° N 06:32:46 35° WNW 06:36:26 10° SW
Cosmos 1814 Rocket 4.0 06:30:18 10° SSW 06:35:32 73° WNW 06:40:52 10° NNE
SeaSat 1 4.3 06:33:34 10° N 06:35:36 13° NNW 06:37:38 10° NW
Cosmos 2237 Rocket 3.3 06:30:56 10° NNW 06:36:10 37° NE 06:41:22 10° ESE
BREEZE-M DEB (TANK) 4.1 06:35:22 10° SW 06:36:24 13° SSW 06:37:40 10° SSE
USA 234 3.3 06:31:33 10° ESE 06:38:08 88° NNE 06:44:45 10° WNW
SL-4 R/B 2.7 06:37:09 10° W 06:40:03 31° SSW 06:42:54 10° SE
Cosmos 1825 Rocket 4.3 06:35:55 10° S 06:40:16 59° E 06:44:37 10° NNE
IRS-1C 4.2 06:35:49 10° NNE 06:41:11 90° W 06:46:31 10° SSW
Cosmos 1758 Rocket 3.7 06:37:29 10° SSW 06:41:47 50° WNW 06:46:05 10° N
Cosmos 1733 2.9 06:41:06 10° WSW 06:42:31 18° WNW 06:43:57 10° NNW
Cosmos 1743 2.4 06:39:37 10° SSW 06:42:47 51° WNW 06:45:59 10° N
Thor Agena Rocket 3.5 06:39:24 10° N 06:44:24 58° WNW 06:49:20 10° SW
Cosmos 2219 Rocket 2.6 06:40:35 10° NW 06:46:00 48° WSW 06:51:22 10° S
BREEZE-M DEB (TANK) 4.0 06:43:33 10° WSW 06:46:33 58° S 06:55:19 10° E
CZ-2D R/B 4.4 06:42:57 10° NNE 06:46:53 50° E 06:50:41 10° S
ATLAS 5 CENTAUR R/B 2.9 06:45:40 10° NW 06:48:04 17° N 06:50:44 10° NE
Cosmos 2322 Rocket 3.3 06:44:06 10° NW 06:48:49 27° WSW 06:53:28 10° SSW
S3M 4.0 06:43:14 10° NNW 06:49:24 65° W 06:55:27 10° S
Cosmos 2322 3.8 06:49:17 10° NNW 06:54:58 85° WSW 07:00:38 10° SSE
USA 229 4.1 06:47:48 10° NW 06:55:05 89° NE 07:03:11 10° SE
USA 229 DEB 4.1 06:47:54 10° NW 06:55:10 89° NE 07:03:16 10° SE
